Weather History for Okmulgee, OK

Change the Weather History Date:

Friday, March 7, 2014

  Actual Average (KMKO) Record (KMKO)
Temperature  
Mean Temperature 46 °F -  
Max Temperature 60 °F 55 °F 75 °F (2006)
Min Temperature 32 °F 33 °F 24 °F (2008)
Degree Days  
Heating Degree Days 19    
Moisture  
Dew Point 34 °F    
Average Humidity 68    
Maximum Humidity 98    
Minimum Humidity 39    
Precipitation  
Precipitation 0.00 in - - ()
Sea Level Pressure  
Sea Level Pressure 29.91 in    
Wind  
Wind Speed 8 mph (SSE)    
Max Wind Speed 23 mph    
Max Gust Speed 33 mph    
Visibility 9 miles    
Events      
Averages and records for this station are not official NWS values.
T = Trace of Precipitation, MM = Missing Value Source: NWS Daily Summary

Daily Weather History Graph

Daily Weather History Graph

Search for Another Location

Airport:

Trip Planner

Search our weather history database for the weather conditions in past years. The results will help you decide how hot, cold, wet, or windy it might be!

Date:

Astronomy

Mar. 07, 2014 Rise Set
Actual Time 6:45 AM CST 6:24 PM CST
Civil Twilight 6:20 AM CST 6:49 PM CST
Nautical Twilight 5:50 AM CST 7:19 PM CST
Astronomical Twilight 5:21 AM CST 7:49 PM CST
Moon 10:51 AM CST (3/7) 12:18 AM CST (3/7)
Length of Visible Light 12h 29m
Length of Day
11h 38m
Waxing Crescent, 42% of the Moon is Illuminated
Mar 7
Waxing Crescent
Mar 8
First Quarter
Mar 16
Full
Mar 23
Last Quarter
Mar 30
New

Hourly Weather History & Observations

Time (CST) Temp. Windchill Dew Point Humidity Pressure Visibility Wind Dir Wind Speed Gust Speed Precip Events Conditions
12:15 AM 35.1 °F 32.2 °F 32.0 °F 89% 30.01 in 10.0 mi SSE 3.5 mph - N/A   Clear
12:35 AM 34.2 °F 29.0 °F 31.5 °F 90% 29.99 in 10.0 mi SE 5.8 mph - N/A   Clear
12:55 AM 34.0 °F 29.8 °F 31.1 °F 89% 29.98 in 10.0 mi SSE 4.6 mph - N/A   Clear
1:15 AM 34.7 °F 30.6 °F 31.8 °F 89% 29.98 in 10.0 mi SSE 4.6 mph - N/A   Clear
1:35 AM 34.7 °F - 32.0 °F 90% 29.98 in 10.0 mi Calm Calm - N/A   Clear
1:55 AM 35.8 °F 30.9 °F 32.0 °F 86% 29.98 in 10.0 mi South 5.8 mph - N/A   Clear
2:15 AM 35.2 °F 31.2 °F 32.0 °F 88% 29.98 in 10.0 mi SSE 4.6 mph - N/A   Clear
2:35 AM 33.1 °F 30.0 °F 30.7 °F 91% 29.98 in 10.0 mi SSE 3.5 mph - N/A   Clear
2:55 AM 33.8 °F 30.8 °F 31.8 °F 92% 29.97 in 10.0 mi SE 3.5 mph - N/A   Clear
3:15 AM 32.2 °F 26.7 °F 31.1 °F 96% 29.97 in 5.0 mi ESE 5.8 mph - N/A   Clear
3:35 AM 32.0 °F 28.7 °F 31.3 °F 97% 29.96 in 5.0 mi SSE 3.5 mph - N/A   Clear
3:55 AM 33.1 °F 26.9 °F 32.0 °F 96% 29.96 in 7.0 mi South 6.9 mph - N/A   Clear
4:15 AM 34.0 °F 28.0 °F 32.0 °F 92% 29.96 in 7.0 mi SSW 6.9 mph - N/A   Clear
4:35 AM 34.2 °F 26.2 °F 32.5 °F 94% 29.97 in 7.0 mi South 10.4 mph - N/A   Clear
4:55 AM 33.8 °F 30.8 °F 32.0 °F 93% 29.96 in 7.0 mi SE 3.5 mph - N/A   Clear
5:15 AM 33.1 °F 30.0 °F 32.0 °F 96% 29.97 in 5.0 mi SSE 3.5 mph - N/A   Clear
5:35 AM 33.3 °F 27.1 °F 32.0 °F 95% 29.96 in 5.0 mi SE 6.9 mph - N/A   Clear
5:55 AM 32.7 °F 27.3 °F 32.0 °F 97% 29.97 in 5.0 mi ESE 5.8 mph - N/A   Clear
6:15 AM 32.9 °F 25.9 °F 32.0 °F 96% 29.97 in 5.0 mi ESE 8.1 mph - N/A   Clear
6:35 AM 32.9 °F 26.7 °F 32.0 °F 96% 29.98 in 5.0 mi South 6.9 mph - N/A   Clear
6:55 AM 33.8 °F 29.6 °F 32.2 °F 94% 29.97 in 5.0 mi SSE 4.6 mph - N/A   Clear
7:15 AM 32.2 °F 23.2 °F 31.6 °F 98% 29.96 in 3.0 mi East 11.5 mph - N/A   Clear
7:35 AM 33.3 °F - 32.2 °F 96% 29.97 in 4.0 mi Calm Calm - N/A   Clear
7:55 AM 37.2 °F 31.9 °F 35.2 °F 93% 29.97 in 5.0 mi South 6.9 mph - N/A   Clear
8:15 AM 39.9 °F 33.9 °F 36.9 °F 89% 29.97 in 7.0 mi SSE 9.2 mph - N/A   Clear
8:35 AM 41.9 °F 35.0 °F 37.6 °F 85% 29.96 in 10.0 mi SSE 12.7 mph 20.7 mph N/A   Clear
8:55 AM 43.7 °F 36.6 °F 38.1 °F 81% 29.96 in 10.0 mi SSE 15.0 mph 21.9 mph N/A   Clear
9:15 AM 46.2 °F 39.5 °F 38.3 °F 74% 29.94 in 10.0 mi SSE 16.1 mph 23.0 mph N/A   Clear
9:35 AM 47.1 °F - 37.0 °F 68% 29.96 in 10.0 mi South 16.1 mph 25.3 mph N/A   Clear
9:55 AM 48.4 °F - 37.8 °F 67% 29.94 in 10.0 mi South 17.3 mph 26.5 mph N/A   Clear
10:15 AM 49.3 °F - 37.6 °F 64% 29.94 in 10.0 mi South 16.1 mph 25.3 mph N/A   Clear
10:35 AM 52.2 °F - 38.3 °F 59% 29.93 in 10.0 mi South 18.4 mph 27.6 mph N/A   Clear
10:55 AM 52.2 °F - 37.6 °F 58% 29.92 in 10.0 mi South 20.7 mph 31.1 mph N/A   Clear
11:15 AM 53.1 °F - 37.2 °F 55% 29.91 in 10.0 mi South 18.4 mph 31.1 mph N/A   Clear
11:35 AM 55.9 °F - 37.9 °F 51% 29.91 in 10.0 mi South 15.0 mph 28.8 mph N/A   Clear
11:55 AM 55.6 °F - 37.6 °F 51% 29.89 in 10.0 mi SSE 16.1 mph 25.3 mph N/A   Clear
12:15 PM 57.2 °F - 36.7 °F 46% 29.89 in 10.0 mi SSE 16.1 mph 28.8 mph N/A   Clear
12:35 PM 59.0 °F - 35.1 °F 41% 29.88 in 10.0 mi South 19.6 mph 33.4 mph N/A   Clear
12:55 PM 59.9 °F - 35.2 °F 40% 29.87 in 10.0 mi South 18.4 mph 33.4 mph N/A   Clear
1:15 PM 57.2 °F - 34.5 °F 43% 29.84 in 10.0 mi SSE 23.0 mph 29.9 mph N/A   Clear
1:35 PM 57.2 °F - 34.0 °F 42% 29.83 in 10.0 mi SSE 18.4 mph 29.9 mph N/A   Scattered Clouds
1:55 PM 58.1 °F - 34.2 °F 41% 29.84 in 10.0 mi South 19.6 mph 28.8 mph N/A   Clear
2:15 PM 58.8 °F - 35.8 °F 42% 29.83 in 10.0 mi South 18.4 mph 28.8 mph N/A   Clear
2:35 PM 60.8 °F - 36.0 °F 40% 29.84 in 10.0 mi South 17.3 mph 25.3 mph N/A   Clear
2:55 PM 59.9 °F - 35.8 °F 41% 29.83 in 10.0 mi South 18.4 mph 26.5 mph N/A   Clear
3:15 PM 58.8 °F - 35.2 °F 41% 29.82 in 10.0 mi SSE 19.6 mph 24.2 mph N/A   Clear
3:35 PM 59.0 °F - 35.6 °F 42% 29.82 in 10.0 mi SSE 15.0 mph 23.0 mph N/A   Scattered Clouds
3:55 PM 58.8 °F - 34.9 °F 41% 29.82 in 10.0 mi SSE 16.1 mph 27.6 mph N/A   Clear
4:15 PM 59.4 °F - 34.3 °F 39% 29.81 in 10.0 mi SE 10.4 mph 26.5 mph N/A   Scattered Clouds
4:35 PM 58.1 °F - 36.3 °F 44% 29.79 in 10.0 mi SE 19.6 mph 24.2 mph N/A   Clear
4:55 PM 58.1 °F - 36.1 °F 44% 29.80 in 10.0 mi SE 15.0 mph 21.9 mph N/A   Clear
5:15 PM 58.3 °F - 36.0 °F 43% 29.80 in 10.0 mi SE 11.5 mph 19.6 mph N/A   Clear
5:35 PM 58.1 °F - 35.8 °F 43% 29.79 in 10.0 mi SE 12.7 mph 19.6 mph N/A   Clear
5:55 PM 58.5 °F - 36.0 °F 43% 29.81 in 10.0 mi SSE 5.8 mph - N/A   Clear
6:10 PM 58.1 °F - 36.0 °F 44% 29.82 in 10.0 mi SSE 5.8 mph - N/A   Clear
6:35 PM 54.5 °F - 35.6 °F 49% 29.83 in 10.0 mi SE 3.5 mph - N/A   Clear
6:55 PM 54.0 °F - 35.4 °F 50% 29.84 in 10.0 mi East 5.8 mph - N/A   Clear
7:15 PM 51.4 °F - 35.1 °F 54% 29.85 in 10.0 mi East 8.1 mph - N/A   Clear
7:35 PM 49.3 °F - 35.1 °F 58% 29.86 in 10.0 mi East 11.5 mph - N/A   Clear
7:55 PM 48.6 °F - 34.9 °F 59% 29.86 in 10.0 mi ESE 9.2 mph - N/A   Clear
8:15 PM 51.8 °F - 34.9 °F 53% 29.86 in 10.0 mi ESE 8.1 mph - N/A   Clear
8:35 PM 47.8 °F - 34.7 °F 60% 29.88 in 10.0 mi ESE 10.4 mph - N/A   Clear
8:55 PM 46.9 °F - 34.7 °F 62% 29.88 in 10.0 mi ESE 11.5 mph - N/A   Clear
9:15 PM 48.2 °F - 33.8 °F 58% 29.89 in 10.0 mi South 13.8 mph - N/A   Clear
9:35 PM 49.3 °F - 34.3 °F 56% 29.89 in 10.0 mi South 12.7 mph - N/A   Clear
9:55 PM 49.1 °F - 34.2 °F 56% 29.90 in 10.0 mi East 11.5 mph - N/A   Clear
10:15 PM 45.5 °F - 33.8 °F 64% 29.91 in 10.0 mi Calm Calm - N/A   Clear
10:35 PM 44.1 °F - 33.8 °F 67% 29.91 in 10.0 mi Calm Calm - N/A   Clear
10:50 PM 42.8 °F 40.1 °F 34.0 °F 71% 29.91 in 10.0 mi East 4.6 mph - N/A   Clear
11:15 PM 41.2 °F - 33.8 °F 75% 29.91 in 10.0 mi Calm Calm - N/A   Clear
11:35 PM 42.8 °F 41.1 °F 34.5 °F 73% 29.92 in 10.0 mi ENE 3.5 mph - N/A   Clear
11:55 PM 42.4 °F 40.7 °F 34.5 °F 74% 29.93 in 10.0 mi NE 3.5 mph - N/A   Clear